CW5398 Weather Reports


time (UTC)temp
F
wind
direction
speed
knots
gust
knots
rain 1hr
in
rain 24hr
in
rain mn
in
humidity
%
barometer
mb
20260506153016 50 203 0.0 1.7 0.01 0.02 0.02 100 1019.1
20260506152016 51 203 0.0 1.7 0.01 0.02 0.02 100 1018.7
20260506151016 51 203 0.0 1.7 0.01 0.02 0.02 100 1018.5
20260506150016 50 212 0.0 0.0 0.01 0.02 0.02 100 1018.5
20260506145016 50 212 0.0 0.0 0.01 0.02 0.02 100 1018.4
20260506144015 50 212 0.0 0.0 0.01 0.02 0.02 100 1018.5
20260506143015 50 212 0.0 0.0 0.00 0.01 0.01 100 1018.5
20260506142016 51 212 0.0 0.0 0.00 0.01 0.01 100 1018.3
20260506141016 51 212 0.0 0.0 0.00 0.01 0.01 100 1018.2
20260506140015 51 212 0.0 0.0 0.00 0.01 0.01 100 1018.2
20260506135015 50 212 0.0 0.0 0.00 0.01 0.01 100 1018.1
20260506134016 50 212 0.0 0.0 0.00 0.01 0.01 100 1018.1
20260506133015 50 212 0.0 0.0 0.01 0.01 0.01 100 1018.1
20260506132015 50 212 0.0 0.0 0.01 0.01 0.01 100 1018.0
20260506131055 50 212 0.0 0.0 0.01 0.01 0.01 100 1018.1
20260506130156 50 212 0.0 0.0 0.01 0.01 0.01 100 1018.1
20260506125015 50 212 0.0 0.0 0.01 0.01 0.01 100 1018.1
20260506124015 50 216 0.0 0.0 0.01 0.01 0.01 100 1018.1
20260506123015 50 216 0.0 0.0 0.00 0.00 0.00 100 1018.1
20260506122017 50 216 0.0 0.0 0.00 0.00 0.00 100 1018.0
20260506121017 50 216 0.0 0.0 0.00 0.00 0.00 100 1018.0
20260506120017 50 216 0.0 0.0 0.00 0.00 0.00 100 1018.0
20260506115017 50 216 0.0 0.0 0.00 0.00 0.00 100 1017.6
20260506114017 50 216 0.0 0.0 0.00 0.00 0.00 100 1017.6
20260506113017 50 216 0.0 0.0 0.00 0.00 0.00 100 1017.6
20260506112037 50 216 0.0 0.0 0.00 0.00 0.00 100 1017.6
20260506111017 49 216 0.0 0.0 0.00 0.00 0.00 100 1017.5
20260506110017 49 216 0.0 0.0 0.00 0.00 0.00 100 1017.5
20260506105057 49 216 0.0 0.0 0.00 0.00 0.00 100 1017.1
20260506104017 49 216 0.0 0.0 0.00 0.00 0.00 100 1017.0
20260506103037 49 216 0.0 0.0 0.00 0.00 0.00 100 1017.0
20260506102017 49 216 0.0 0.0 0.00 0.00 0.00 100 1016.8
20260506101017 48 216 0.0 0.0 0.00 0.00 0.00 100 1016.8
20260506100017 48 216 0.0 0.0 0.00 0.00 0.00 100 1016.8
20260506095017 48 216 0.0 0.0 0.00 0.00 0.00 100 1016.7
20260506094017 48 216 0.0 0.0 0.00 0.00 0.00 100 1016.8
20260506093017 48 216 0.0 0.0 0.00 0.00 0.00 100 1016.8
20260506092017 47 216 0.0 0.0 0.00 0.00 0.00 100 1016.8
20260506091037 47 216 0.0 0.0 0.00 0.00 0.00 100 1016.7
20260506090017 47 216 0.0 0.0 0.00 0.00 0.00 100 1016.6
20260506085016 47 216 0.0 0.0 0.00 0.00 0.00 100 1016.6
20260506084037 47 216 0.0 0.0 0.00 0.00 0.00 100 1016.5
20260506083057 46 216 0.0 0.0 0.00 0.00 0.00 100 1016.5
20260506082017 46 216 0.0 0.0 0.00 0.00 0.00 100 1016.5
20260506081016 46 216 0.0 0.0 0.00 0.00 0.00 100 1016.3
20260506073016 46 216 0.0 0.0 0.00 0.00 0.00 100 1015.9
20260506072017 47 216 0.0 0.0 0.00 0.00 0.00 100 1015.9
20260506071016 47 216 0.0 0.0 0.00 0.00 0.00 100 1015.8
20260506062016 48 216 0.0 0.0 0.00 0.00 0.00 100 1015.5
20260506061036 49 217 0.0 0.0 0.00 0.00 0.00 100 1015.5
20260506051016 50 216 0.0 0.0 0.00 0.00 0.00 100 1015.4
20260506045016 51 216 0.0 0.0 0.00 0.00 0.00 99 1015.4
20260506044016 52 216 0.0 0.0 0.00 0.00 0.00 98 1015.3
20260506043036 52 216 0.0 0.0 0.00 0.00 0.00 96 1015.2
20260506042016 53 216 0.0 0.0 0.00 0.00 0.00 95 1014.9
20260506041036 53 216 0.0 0.0 0.00 0.00 0.00 94 1014.6
20260506040036 54 216 0.0 0.0 0.00 0.00 0.00 93 1014.6
20260506035016 55 216 0.0 0.0 0.00 0.00 0.00 91 1014.4
20260506034016 55 216 0.0 0.0 0.00 0.00 0.00 90 1014.3
20260506033016 56 216 0.0 0.0 0.00 0.00 0.00 89 1014.3
20260506032036 57 216 0.0 0.0 0.00 0.00 0.00 89 1014.3
20260506031036 58 216 0.0 0.0 0.00 0.00 0.00 88 1014.3
20260506030112 58 216 0.0 0.0 0.00 0.00 0.00 87 1014.3
20260506025016 58 216 0.0 0.0 0.00 0.00 0.00 87 1014.4
20260506024015 59 225 0.0 0.9 0.00 0.00 0.00 87 1014.4
20260506023035 59 225 0.0 1.7 0.00 0.00 0.00 86 1014.4
20260506022016 59 225 0.0 1.7 0.00 0.00 0.00 86 1014.4
20260506021016 60 225 0.0 1.7 0.00 0.00 0.00 85 1014.3
20260506020016 60 225 0.0 2.6 0.00 0.00 0.00 85 1014.3
20260506015016 60 225 0.0 1.7 0.00 0.00 0.00 84 1014.4
20260506014016 60 225 0.0 1.7 0.00 0.00 0.00 84 1014.4
20260506013015 61 225 0.0 2.6 0.00 0.00 0.00 83 1014.4
20260506012056 61 225 0.9 4.3 0.00 0.00 0.00 83 1014.4
20260506011016 61 225 0.0 0.9 0.00 0.00 0.00 83 1014.4
20260506010016 62 225 0.0 1.7 0.00 0.00 0.00 83 1014.4
20260506005021 62 225 0.0 0.9 0.00 0.00 0.00 84 1014.4
20260506004036 62 225 0.9 4.3 0.00 0.00 0.00 84 1014.4
20260506003015 62 203 0.9 3.5 0.00 0.00 0.00 82 1014.4
20260506002015 62 203 0.9 3.5 0.00 0.00 0.00 82 1014.4
20260506001015 62 203 0.9 3.5 0.00 0.00 0.00 83 1014.6
20260506000015 62 203 0.0 2.6 0.00 0.00 0.00 83 1014.6
20260505235017 62 203 0.9 3.5 0.00 0.00 0.00 82 1014.9
20260505234015 62 203 0.0 2.6 0.00 0.00 0.00 83 1014.9
20260505233017 62 203 0.0 2.6 0.00 0.00 0.00 82 1014.9
20260505232017 63 203 0.9 2.6 0.00 0.00 0.00 82 1014.9
20260505231017 63 203 0.0 2.6 0.00 0.00 0.00 81 1015.0
20260505230017 63 203 0.9 3.5 0.00 0.00 0.00 82 1015.0
20260505225016 63 203 1.7 6.1 0.00 0.00 0.00 84 1015.1
20260505224017 63 203 0.9 4.3 0.00 0.00 0.00 84 1015.0
20260505223037 63 203 0.9 6.1 0.00 0.00 0.00 84 1015.0
20260505222018 63 225 3.5 7.0 0.00 0.00 0.00 83 1015.1
20260505221017 64 225 0.0 3.5 0.00 0.00 0.00 82 1015.3
20260505220058 64 225 0.9 3.5 0.00 0.00 0.00 84 1015.3
20260505215017 63 225 0.9 3.5 0.00 0.00 0.00 84 1015.4
20260505214017 63 180 0.9 6.1 0.00 0.00 0.00 84 1015.6
20260505213017 62 180 0.9 3.5 0.00 0.00 0.00 87 1015.6
20260505212017 62 180 0.0 3.5 0.00 0.00 0.00 88 1015.5
20260505211017 62 270 0.0 4.3 0.00 0.00 0.00 88 1015.4
20260505210017 61 270 0.9 2.6 0.00 0.00 0.00 90 1015.4
20260505205037 60 270 0.9 3.5 0.00 0.00 0.00 91 1015.5
20260505204017 59 265 0.0 0.0 0.00 0.00 0.00 93 1015.7
20260505203017 58 270 0.9 2.6 0.00 0.00 0.00 95 1015.7
20260505202017 57 270 0.0 1.7 0.00 0.00 0.00 96 1015.7
20260505201017 57 270 0.9 2.6 0.00 0.00 0.00 96 1015.8
20260505200017 57 270 0.0 0.9 0.00 0.00 0.00 97 1015.8
20260505195017 56 270 0.0 0.9 0.00 0.00 0.00 98 1015.8
20260505194037 56 265 0.0 0.0 0.00 0.00 0.00 98 1015.8
20260505193016 56 270 0.0 1.7 0.00 0.00 0.00 98 1015.8
20260505192017 55 270 0.0 2.6 0.00 0.00 0.00 99 1015.7
20260505191017 55 270 0.0 0.9 0.00 0.00 0.00 99 1015.7
20260505190036 55 270 0.9 2.6 0.00 0.00 0.00 99 1015.7
20260505185016 55 265 0.0 0.0 0.00 0.00 0.00 99 1015.8
20260505184017 55 270 0.0 0.9 0.00 0.00 0.00 99 1015.7
20260505183016 55 270 0.0 3.5 0.00 0.00 0.00 99 1015.7
20260505182016 56 270 0.0 1.7 0.00 0.00 0.00 99 1015.6
20260505181016 56 265 0.0 0.0 0.00 0.00 0.00 100 1015.3
20260505180036 55 265 0.0 0.0 0.00 0.00 0.00 100 1015.3
20260505175037 55 270 0.0 0.9 0.00 0.00 0.00 100 1015.3
20260505174016 55 270 0.0 2.6 0.00 0.00 0.00 100 1015.2
20260505173016 55 270 0.0 1.7 0.00 0.00 0.00 100 1015.2
20260505172016 54 265 0.0 0.0 0.00 0.00 0.00 100 1015.3
20260505171016 54 265 0.0 0.0 0.00 0.00 0.00 100 1015.3
20260505170016 54 270 0.0 1.7 0.00 0.00 0.00 100 1015.3
20260505165056 54 270 0.0 0.9 0.00 0.00 0.00 100 1015.3
20260505164036 54 265 0.0 0.0 0.00 0.00 0.00 100 1015.2
20260505163016 54 265 0.0 0.0 0.00 0.00 0.00 100 1015.2
20260505162036 54 265 0.0 0.0 0.00 0.00 0.00 100 1015.1
20260505161016 53 265 0.0 0.0 0.00 0.00 0.00 100 1015.0